Regional Weather Roundup
Issued by NWS

Home | Current Version | Previous Version | Text Only | Print | Product List | Glossary On
Versions: 1 2 3 4 5 6 7 8 9 10 11 12 13 14 15 16 17 18 19 20 21 22 23 24 25 26 27 28 29 30 31 32 33 34 35 36 37 38 39 40 41 42 43 44 45 46 47 48 49 50
000
ASUS43 KMPX 250701
RWRMN
WEATHER ROUNDUP FOR MINNESOTA
NATIONAL WEATHER SERVICE TWIN CITIES/CHANHASSEN MN
200 AM CDT THU AUG 25 2016


NOTE: "FAIR" INDICATES FEW OR NO CLOUDS BELOW 12,000 FEET WITH NO
SIGNIFICANT WEATHER AND/OR OBSTRUCTIONS TO VISIBILITY. N/A MEANS
CURRENT SKY AND/OR WEATHER CONDITIONS ARE NOT AVAILABLE.

MNZ060>063-068>070-250800-
   Twin Cities Metro

CITY           SKY/WX    TMP DP  RH WIND       PRES   REMARKS
TWIN CITIES    PTCLDY    66  59  78 CALM      30.01S
ST PAUL        PTCLDY    65  59  81 CALM      30.01S
CRYSTAL        CLEAR     63  56  78 CALM      29.99S
BLAINE         CLEAR     63  57  82 S3        30.01R
LAKEVILLE      PTCLDY    61  61 100 CALM      30.02S
EDEN PRAIRIE   CLEAR     63  59  87 SW5       30.00F
LAKEVILLE      PTCLDY    61  61 100 CALM      30.02S
SOUTH ST PAUL  PTCLDY    64  60  84 SW5       30.01S
LAKE ELMO      FAIR      59  59 100 CALM      30.02S
$$
MNZ001>005-007-008-013>017-022>024-027-028-250800-
   Northwest Minnesota

CITY           SKY/WX    TMP DP  RH WIND       PRES   REMARKS
BEMIDJI        CLEAR     56  51  84 SW7       29.93S
HALLOCK        CLEAR     57  54  88 SW8       29.85S
ROSEAU         CLEAR     57  52  82 SW7       29.85S
WARROAD        CLEAR     55  52  88 SW6       29.85S
THIEF RVR FALL CLEAR     56  51  84 W8        29.90S
CROOKSTON      CLEAR     57  52  82 W12         N/A
FOSSTON        CLEAR     52  48  87 SW9       29.93F
DETROIT LAKES  CLEAR     61  52  72 W7        29.98S
MOORHEAD       PTCLDY    59  52  77 W9        29.97S
PARK RAPIDS    CLEAR     55  51  86 S3        29.96S
MAHNOMEN       FAIR      55  50  82 SW7       29.94F
$$
MNZ006-009>011-018-025>026-250800-
   North Central Minnesota

CITY           SKY/WX    TMP DP  RH WIND       PRES   REMARKS
BAUDETTE       CLEAR     54  51  90 SW7       29.86S
FLAG ISLAND    CLEAR     61  54  77 SW5       29.81F HAZE
INTL FALLS     CLEAR     53  51  93 SW5       29.87S
WASKISH        CLEAR     64  55  72 W16       29.89S
BIG FORK       CLEAR     54  52  94 SW3       29.92S
LONGVILLE      CLEAR     55  54  94 CALM      29.95S
GRAND RAPIDS   CLEAR     59  54  83 VRB3      29.96S
CRANE LAKE     CLEAR     55  54  94 S3        29.90F
ORR            CLEAR     55  50  82 CALM      29.88S
COOK           CLEAR     57  54  88 SW3       29.91S
WALKER         FAIR      57  51  80 SW6       29.95S
$$
MNZ012-019>021-037-250800-
   Northeast Minnesota

CITY           SKY/WX    TMP DP  RH WIND       PRES   REMARKS
DULUTH         CLEAR     57  54  89 W10       29.95R
ELY            CLEAR     57  52  82 SW5       29.90S
HIBBING        CLEAR     50  49  96 SW3       29.93S
EVELETH        CLEAR     53  52  97 CALM      29.93S FOG
DULUTH HARBOR  CLEAR     63  57  82 SW9       29.94S
TWO HARBORS    CLEAR     59  54  82 W3        29.91R
SILVER BAY     CLEAR     55  55 100 CALM      29.90R
G MARAIS ARPRT CLEAR     57  50  77 W5        29.90F
$$
MNZ029>031-032-039>041-046>048-054>057-064-250800-
   West Central Minnesota

CITY           SKY/WX    TMP DP  RH WIND       PRES   REMARKS
FERGUS FALLS   CLEAR     55  52  88 W7        30.01S
WHEATON        CLEAR     61  55  82 W6        30.03S
MORRIS         CLEAR     57  55  94 W5        30.01S
ALEXANDRIA     CLEAR     58  55  90 SW7       30.02S
ELBOW LAKE     FAIR      54  53  95 SW7       30.01S
WADENA         CLEAR     55  54  94 SW5       29.98S
GLENWOOD       CLEAR     55  54  94 SW6       30.03S
APPLETON       CLEAR     57  54  88 W5        30.02S
BENSON         CLEAR     55  54  94 CALM      30.02S
ORTONVILLE     CLEAR     57  54  88 CALM      30.03R
MADISON        CLEAR     57  55  94 W5        30.03S
WILLMAR        FAIR      57  55  94 W3        30.04S
$$
MNZ033>034-036-042>043-049>051-058-059-250800-
   Central Minnesota

CITY           SKY/WX    TMP DP  RH WIND       PRES   REMARKS
ST CLOUD       CLEAR     58  57  97 CALM      30.00S
SAUK CENTRE    FAIR      56  55  93 CALM      30.02S
PAYNESVILLE    CLEAR     55  55 100 W3        30.03S
AITKIN         CLEAR     61  54  77 SW3       29.96S
PINE RIVER     CLEAR     52  52 100 CALM      30.01R
BRAINERD       CLEAR     57  54  89 S6        29.99R
STAPLES        CLEAR     55  52  88 SW5       29.99R
LONG PRAIRIE   FAIR      55  54  94 S5        30.02R
LITTLE FALLS   CLEAR     54  52  94 CALM      30.01R
LITCHFIELD     CLEAR     63  59  88 W3        30.03S
BUFFALO        CLEAR     62  58  88 CALM      30.02S
MAPLE LAKE     CLEAR     63  60  89 W6        30.02S
HUTCHINSON     CLEAR     61  59  93 SW3       30.04S
$$
MNZ037-044-045-052-053-250800-
   East Central Minnesota

CITY           SKY/WX    TMP DP  RH WIND       PRES   REMARKS
PRINCETON      CLEAR     61  57  88 CALM      30.00F
MORA           CLEAR     59  54  82 W3        30.01S
CAMBRIDGE      CLEAR     63  54  72 CALM      29.98F
RUSH CITY      PTCLDY    60  57  88 W3        30.00S
MOOSE LAKE     CLEAR     54  52  94 SW3       29.96R
HINCKLEY       FAIR      57  55  94 SW3       29.99S
CLOQUET        CLEAR     61  54  77 SW7       29.96R
MCGREGOR       CLEAR     59  54  82 SW6       29.98R
$$
MNZ071>073-080-081-089-090-097-098-250800-
   Southwest Minnesota

CITY           SKY/WX    TMP DP  RH WIND       PRES   REMARKS
MONTEVIDEO     CLEAR     59  54  82 W3        30.05R
GRANITE FALLS  CLEAR     60  58  91 SW7       30.05S
CANBY          CLEAR     62  55  78 SW8       30.05R
MARSHALL       CLEAR     61  56  83 W10       30.05S
REDWOOD FALLS  CLEAR     60  56  86 SW7       30.03S
OLIVIA         CLEAR     55  54  94 SW5       30.03S
PIPESTONE      CLEAR     55  54  94 SW3       30.09R
WINDOM         CLEAR     57  55  94 W3        30.06F
WORTHINGTON    CLOUDY    59  56  89 W8        30.09S
JACKSON        CLEAR     59  54  82 W5        30.08S
TRACY          CLEAR     61  57  87 SW7       30.06S
SLAYTON        PTCLDY    59  55  88 SW3       30.09S
$$
MNZ065>067-074>077-082>085-091>093-250800-
   South Central Minnesota

CITY           SKY/WX    TMP DP  RH WIND       PRES   REMARKS
MANKATO        CLEAR     61  57  88 W5        30.03F
NEW ULM          N/A     59  57  94 W6        30.03F
ST JAMES       CLEAR     55  54  94 CALM      30.05F
FAIRMONT       CLEAR     61  57  87 W5        30.06S
GLENCOE        CLEAR     62  61  96 SW3       30.02S
FARIBAULT      CLOUDY    63  61  94 CALM      30.04S
OWATONNA       CLOUDY    63  59  88 CALM      30.04S
WASECA         CLOUDY    59  57  94 CALM      30.05S
ALBERT LEA     CLOUDY    64  61  88 CALM      30.05R
$$
MNZ078>079-086>088-094>096-250800-
   Southeast Minnesota

CITY           SKY/WX    TMP DP  RH WIND       PRES   REMARKS
ROCHESTER      MOCLDY    62  60  93 NW6       30.04R
RED WING       CLOUDY    63  61  94 CALM      30.00S
STANTON        CLOUDY    64  59  82 CALM      30.01S
DODGE CENTER   PTCLDY    64  59  82 NW7       30.05R
WINONA         CLOUDY    64  59  82 CALM      30.01S
AUSTIN         CLOUDY    63  59  88 NW3       30.04R
PRESTON        PTCLDY    62  58  88 NW8       30.04R
$$
ABBREVIATIONS USED IN REMARKS
   TC - TEMPERATURES IN CELSIUS
  WCI - WIND CHILL INDEX
   HX - HEAT INDEX
  VSB - VISIBILITY
$$




USA.gov is the U.S. government's official web portal to all federal, state and local government web resources and services.